Date String (YYYY-MM-DD hh:mm:ss) UTC,Instrument flags,absolute air pressure of the measurement (hPa),sample flow rate (lpm),inlet stack bypass flow (lpm),air temperature of the measurement (°C),ambient temperature measured by the external sensor (°C),aerosol sample conditioner tube jacket temperature (°C),OPC LED temperature (°C),internal box temperature (°C),relative humidity of the measurement (%),span deviation,mass concentration of particles derived from Lorenz-Mie calculation of OPC scattering (μg/m³),mass concentration of particles derived from Lorenz-Mie calculation of OPC scattering (μg/m³),mass concentration of particles derived from Lorenz-Mie calculation of OPC scattering (μg/m³)
DateTimeUTC,F1_M11,P_M11,Q1_M11,Q2_M11,T1_M11,T2_M11,T3_M11,T4_M11,T5_M11,U1_M11,ZSPAN_M11,X2_M11,X0_M11,X1_M11
2023-12-13 18:00:00,SystemResetWarning,0839.2,4.99,000.00,018.7,017.6,000.0,027.1,020.0,22.9,0000.3,0012.10,0017.71,0011.37
2023-12-13 18:01:00,SystemResetWarning,0839.2,4.99,000.00,018.7,017.6,000.0,027.1,020.0,22.7,0000.3,0012.09,0017.62,0011.40
2023-12-13 18:02:00,SystemResetWarning,0839.2,5.00,000.00,018.7,017.6,000.0,027.1,020.0,22.7,0000.5,0012.07,0017.54,0011.42
2023-12-13 18:03:00,SystemResetWarning,0839.2,5.02,000.00,018.7,017.6,000.0,027.1,020.0,22.7,0000.6,0012.12,0016.98,0011.46
2023-12-13 18:04:00,SystemResetWarning,0839.1,5.00,000.00,018.7,017.6,000.0,027.1,020.0,22.9,0000.8,0012.19,0017.06,0011.51
2023-12-13 18:05:00,SystemResetWarning,0839.1,5.00,000.00,018.7,017.6,000.0,027.1,020.0,23.1,0001.0,0012.23,0017.64,0011.54
2023-12-13 18:06:00,SystemResetWarning,0839.1,4.99,000.00,018.7,017.6,000.0,027.1,020.0,22.9,0001.2,0012.26,0017.58,0011.58
2023-12-13 18:07:00,SystemResetWarning,0839.1,5.00,000.00,018.7,017.7,000.0,027.1,020.0,23.0,0001.4,0012.24,0017.38,0011.60
2023-12-13 18:08:00,SystemResetWarning,0839.1,5.00,000.00,018.7,017.7,000.0,027.1,020.0,22.7,0001.6,0012.25,0017.23,0011.59
2023-12-13 18:09:00,SystemResetWarning,0839.1,5.00,000.00,018.7,017.7,000.0,027.1,020.0,22.5,0001.7,0012.24,0016.45,0011.60
2023-12-13 18:10:00,SystemResetWarning,0839.1,5.00,000.00,018.7,017.7,000.0,027.1,020.2,22.6,0001.7,0012.26,0015.91,0011.60
2023-12-13 18:11:00,SystemResetWarning,0839.1,5.01,000.00,018.8,018.3,000.0,027.1,020.7,22.5,0001.9,0012.32,0015.87,0011.62
2023-12-13 18:12:00,SystemResetWarning,0839.1,5.00,000.00,019.0,018.9,000.0,027.1,020.9,22.3,0002.0,0012.35,0015.92,0011.64
2023-12-13 18:13:00,SystemResetWarning,0839.1,4.98,000.00,019.0,018.8,000.0,027.1,020.5,22.2,0002.0,0012.38,0015.94,0011.67
2023-12-13 18:14:00,SystemResetWarning,0839.1,5.00,000.00,018.9,018.7,000.0,027.1,020.3,22.2,0001.8,0012.38,0015.91,0011.69
2023-12-13 18:15:00,SystemResetWarning,0838.9,5.00,000.00,018.9,018.5,000.0,027.2,020.1,22.3,0001.5,0012.37,0015.93,0011.69
2023-12-13 18:16:00,SystemResetWarning,0838.9,5.01,000.00,018.9,018.4,000.0,027.2,020.1,22.3,0001.6,0012.37,0015.39,0011.71
2023-12-13 18:17:00,SystemResetWarning,0838.9,5.00,000.00,018.9,018.3,000.0,027.2,020.0,22.4,0001.4,0012.38,0015.76,0011.72
2023-12-13 18:18:00,SystemResetWarning,0838.9,5.00,000.00,018.8,018.3,000.0,027.2,020.0,22.5,0001.1,0012.39,0015.83,0011.73
2023-12-13 18:19:00,SystemResetWarning,0838.9,5.00,000.00,018.8,018.2,000.0,027.2,020.0,22.5,0001.0,0012.34,0015.72,0011.72
2023-12-13 18:20:00,SystemResetWarning,0838.9,5.00,000.00,018.8,018.1,000.0,027.2,020.0,22.5,0001.1,0012.34,0016.23,0011.73
2023-12-13 18:21:00,SystemResetWarning,0838.9,4.99,000.00,018.8,018.0,000.0,027.2,020.0,22.4,0001.0,0012.32,0016.21,0011.74
2023-12-13 18:22:00,SystemResetWarning,0838.9,4.99,000.00,018.8,018.0,000.0,027.2,020.0,22.4,0001.0,0012.27,0016.06,0011.75
2023-12-13 18:23:00,SystemResetWarning,0838.8,5.00,000.00,018.8,018.0,000.0,027.2,020.0,22.5,0001.0,0012.28,0016.07,0011.77
2023-12-13 18:24:00,SystemResetWarning,0838.8,5.00,000.00,018.8,018.0,000.0,027.2,020.0,22.4,0000.6,0012.32,0016.14,0011.79
2023-12-13 18:25:00,SystemResetWarning,0838.8,5.01,000.00,018.8,018.0,000.0,027.2,020.0,22.4,0000.8,0012.36,0016.44,0011.81
2023-12-13 18:26:00,SystemResetWarning,0838.8,5.00,000.00,018.8,017.9,000.0,027.2,020.0,22.4,0001.0,0012.38,0016.44,0011.84
2023-12-13 18:27:00,SystemResetWarning,0838.8,5.00,000.00,018.8,017.9,000.0,027.2,020.0,22.5,0000.8,0012.42,0016.46,0011.87
2023-12-13 18:28:00,SystemResetWarning,0838.7,5.01,000.00,018.8,017.9,000.0,027.2,020.0,22.3,0000.9,0012.44,0016.18,0011.89
2023-12-13 18:29:00,SystemResetWarning,0838.8,5.00,000.00,018.8,017.9,000.0,027.2,020.0,22.2,0001.2,0012.45,0016.07,0011.92
2023-12-13 18:30:00,SystemResetWarning,0838.8,4.99,000.00,018.8,017.9,000.0,027.2,020.0,22.1,0001.1,0012.54,0016.16,0012.00
2023-12-13 18:31:00,SystemResetWarning,0838.8,5.00,000.00,018.8,017.9,000.0,027.2,020.0,22.1,0000.7,0012.61,0015.80,0012.06
2023-12-13 18:32:00,SystemResetWarning,0838.7,4.99,000.00,018.7,017.9,000.0,027.2,020.0,22.2,0000.9,0012.65,0015.83,0012.12
2023-12-13 18:33:00,SystemResetWarning,0838.7,5.00,000.00,018.7,017.8,000.0,027.2,020.0,22.2,0000.8,0012.71,0015.78,0012.17
2023-12-13 18:34:00,SystemResetWarning,0838.7,5.00,000.00,018.7,017.8,000.0,027.2,020.0,22.3,0000.5,0012.80,0015.89,0012.24
2023-12-13 18:35:00,SystemResetWarning,0838.7,5.01,000.00,018.7,017.8,000.0,027.2,020.0,22.3,0000.7,0012.87,0016.04,0012.29
2023-12-13 18:36:00,SystemResetWarning,0838.7,5.00,000.00,018.7,017.8,000.0,027.2,020.0,22.4,0000.7,0012.90,0016.31,0012.32
2023-12-13 18:37:00,SystemResetWarning,0838.7,5.00,000.00,018.7,017.8,000.0,027.2,020.0,22.5,0000.7,0012.91,0016.72,0012.34
2023-12-13 18:38:00,SystemResetWarning,0838.7,5.00,000.00,018.7,017.8,000.0,027.2,020.0,22.6,0000.9,0012.92,0017.22,0012.35
2023-12-13 18:39:00,SystemResetWarning,0838.7,5.00,000.00,018.7,017.8,000.0,027.2,020.0,22.7,0001.1,0012.99,0017.33,0012.39
2023-12-13 18:40:00,SystemResetWarning,0838.7,5.00,000.00,018.7,017.8,000.0,027.2,020.0,22.7,0001.1,0013.02,0017.31,0012.40
2023-12-13 18:41:00,SystemResetWarning,0838.7,5.00,000.00,018.7,017.8,000.0,027.2,020.0,22.5,0000.8,0012.97,0017.33,0012.35
2023-12-13 18:42:00,SystemResetWarning,0838.7,5.00,000.00,018.8,017.8,000.0,027.2,020.0,22.5,0001.1,0012.89,0017.17,0012.28
2023-12-13 18:43:00,SystemResetWarning,0838.7,5.01,000.00,018.8,017.8,000.0,027.2,020.0,22.4,0001.1,0012.85,0017.15,0012.23
2023-12-13 18:44:00,SystemResetWarning,0838.6,5.01,000.00,018.8,017.8,000.0,027.2,020.0,22.4,0001.2,0012.83,0017.16,0012.20
2023-12-13 18:45:00,SystemResetWarning,0838.7,5.00,000.00,018.8,017.8,000.0,027.1,020.0,22.4,0001.6,0012.75,0017.02,0012.15
2023-12-13 18:46:00,SystemResetWarning,0838.6,5.00,000.00,018.8,017.8,000.0,027.1,020.0,22.3,0001.4,0012.69,0016.85,0012.11
2023-12-13 18:47:00,SystemResetWarning,0838.7,5.00,000.00,018.8,017.8,000.0,027.1,020.0,22.3,0001.4,0012.67,0016.42,0012.09
2023-12-13 18:48:00,SystemResetWarning,0838.7,5.00,000.00,018.8,017.8,000.0,027.1,020.0,22.3,0001.4,0012.67,0016.07,0012.08
2023-12-13 18:49:00,SystemResetWarning,0838.7,4.99,000.00,018.8,017.8,000.0,027.1,020.0,22.3,0001.2,0012.64,0015.37,0012.08
2023-12-13 18:50:00,SystemResetWarning,0838.6,4.99,000.00,018.7,017.8,000.0,027.1,020.0,22.3,0001.1,0012.59,0015.20,0012.05
2023-12-13 18:51:00,SystemResetWarning,0838.6,5.00,000.00,018.8,017.8,000.0,027.1,020.0,22.4,0001.2,0012.55,0015.19,0012.05
2023-12-13 18:52:00,SystemResetWarning,0838.6,5.01,000.00,018.8,017.8,000.0,027.1,020.0,22.4,0001.4,0012.54,0015.50,0012.07
2023-12-13 18:53:00,SystemResetWarning,0838.7,5.01,000.00,018.8,017.8,000.0,027.1,020.0,22.5,0001.4,0012.58,0015.78,0012.10
2023-12-13 18:54:00,SystemResetWarning,0838.7,5.00,000.00,018.8,017.8,000.0,027.1,020.0,22.4,0001.2,0012.57,0015.83,0012.10
2023-12-13 18:55:00,SystemResetWarning,0838.7,4.99,000.00,018.8,017.8,000.0,027.1,020.0,22.5,0001.3,0012.61,0015.89,0012.11
2023-12-13 18:56:00,SystemResetWarning,0838.7,4.99,000.00,018.7,017.8,000.0,027.1,020.0,22.5,0001.2,0012.63,0015.93,0012.12
2023-12-13 18:57:00,SystemResetWarning,0838.7,5.00,000.00,018.7,017.8,000.0,027.1,020.0,22.6,0001.2,0012.65,0016.03,0012.13
2023-12-13 18:58:00,SystemResetWarning,0838.6,5.00,000.00,018.7,017.8,000.0,027.1,020.0,22.7,0001.3,0012.66,0016.10,0012.12
2023-12-13 18:59:00,SystemResetWarning,0838.6,5.01,000.00,018.7,017.8,000.0,027.2,020.0,22.8,0001.3,0012.62,0015.95,0012.09
